User: anonymous   Login
Location: Table Mountain
(47.2500°N, 120.5778°W)
Time: 16:18:25
(UTC-07:00)
Language:

KKS-1 - Orbit

View from above orbital plane
View from above orbital plane
View from above satellite
View from above satellite

Ground track
Ground track

The orbit data is extracted from the following two-line orbital elements,

1 33499U 09002H   18265.57012341 +.00000089 +00000-0 +21229-4 0  9991
2 33499 098.3582 090.5178 0008955 351.1478 008.9570 14.75362995519118
Epoch (UTC): 22 September 2018 13:40:58
Eccentricity: 0.0008955
inclination: 98.3582°
perigee height: 638 km
apogee height: 650 km
right ascension of ascending node: 90.5178°
argument of perigee: 351.1478°
revolutions per day: 14.75362995
mean anomaly at epoch: 8.9570°
orbit number at epoch: 51911

The dashed part of the orbit path shows where the satellite is in the earth's shadow,  

DLR